sat.trackr.live / text

‹ back to catalog

STARLINK-35103

NORAD 65633 · 2025-210M

PAYLOAD ACTIVE UNKNOWN

§ Identity

Operator
Country
US
Launch date
2025-09-18
Launch site
AFETR
Launch vehicle
Mass (kg)
RCS (m²)

Purposes: comms

External: N2YO · Heavens-Above · Gunter

§ Orbital elements

Epoch: 2026-09-20T21:41:59.087040Z

Period
93.85 min
Inclination
53.1579°
Eccentricity
0.0002587
Mean motion
15.34395731 rev/d
Perigee alt
460.9 km
Apogee alt
464.5 km
Semi-major
6,840.9 km
B*
5.6449e-4
RAAN
115.7674°
Arg perigee
83.8024°
Mean anomaly
276.3273°
Rev number
5,768

§ Raw data

STARLINK-351031 65633U 25210M   26263.90415610  .00018742  00000+0  56449-3 0  99902 65633  53.1579 115.7674 0002587  83.8024 276.3273 15.34395731 57680

JSON: /api/v1/satellites/65633 · /tle

For live sub-satellite position, see the globe view (requires WebGL).

§ Visibility from observer

Set your observer location to see the next 7 days of passes ≥ 10°. The values pass through the URL so the page stays shareable.

No JS? Fill the form by hand. The geolocation button needs JavaScript.